| time (UTC) | temp F | wind direction | speed knots | gust knots | rain 1hr in | rain 24hr in | rain mn in | humidity % | barometer mb |
| 20260506135049 | 70 | 245 | 3.5 | 0.9 | 0.00 | 0.00 | 0.00 | ||
| 20260506134549 | 71 | 340 | 2.6 | 0.0 | 0.00 | 0.00 | 0.00 | ||
| 20260506133549 | 69 | 176 | 1.7 | 0.0 | 0.00 | 0.00 | 0.00 | ||
| 20260506132548 | 69 | 285 | 3.5 | 4.3 | 0.00 | 0.00 | 0.00 | ||
| 20260506132049 | 69 | 340 | 5.2 | 3.5 | 0.00 | 0.00 | 0.00 | ||
| 20260506131550 | 72 | 283 | 0.0 | 0.0 | 0.00 | 0.00 | 0.00 | ||
| 20260506131048 | 73 | 252 | 0.9 | 3.5 | 0.00 | 0.00 | 0.00 | ||
| 20260506130547 | 73 | 239 | 0.9 | 0.0 | 0.00 | 0.00 | 0.00 | ||
| 20260506130048 | 71 | 205 | 2.6 | 0.9 | 0.00 | 0.00 | 0.00 | ||
| 20260506125549 | 70 | 228 | 2.6 | 4.3 | 0.00 | 0.00 | 0.00 | ||
| 20260506125050 | 69 | 240 | 1.7 | 4.3 | 0.00 | 0.00 | 0.00 | ||
| 20260506124548 | 69 | 145 | 1.7 | 0.0 | 0.00 | 0.00 | 0.00 | ||
| 20260506123048 | 70 | 222 | 5.2 | 5.2 | 0.00 | 0.00 | 0.00 | ||
| 20260506122550 | 76 | 138 | 4.3 | 6.1 | 0.00 | 0.00 | 0.00 | ||
| 20260506122047 | 77 | 153 | 2.6 | 6.1 | 0.00 | 0.00 | 0.00 | ||
| 20260506121547 | 73 | 120 | 2.6 | 3.5 | 0.00 | 0.00 | 0.00 | ||
| 20260506121049 | 73 | 169 | 0.9 | 0.0 | 0.00 | 0.00 | 0.00 | ||
| 20260506120550 | 68 | 259 | 4.3 | 2.6 | 0.00 | 0.00 | 0.00 | ||
| 20260506120051 | 71 | 35 | 0.9 | 0.0 | 0.00 | 0.00 | 0.00 | ||
| 20260506115549 | 69 | 207 | 1.7 | 3.5 | 0.00 | 0.00 | 0.00 | ||
| 20260506114551 | 71 | 136 | 3.5 | 3.5 | 0.00 | 0.00 | 0.00 | ||
| 20260506114053 | 67 | 226 | 1.7 | 0.9 | 0.00 | 0.00 | 0.00 | ||
| 20260506113554 | 67 | 217 | 3.5 | 2.6 | 0.00 | 0.00 | 0.00 | ||
| 20260506113052 | 70 | 132 | 0.9 | 0.9 | 0.00 | 0.00 | 0.00 | ||
| 20260506112554 | 70 | 7 | 1.7 | 2.6 | 0.00 | 0.00 | 0.00 | ||
| 20260506111557 | 71 | 226 | 1.7 | 2.6 | 0.00 | 0.00 | 0.00 | ||
| 20260506111058 | 68 | 321 | 0.9 | 1.7 | 0.00 | 0.00 | 0.00 | ||
| 20260506110555 | 66 | 278 | 3.5 | 2.6 | 0.00 | 0.00 | 0.00 | ||
| 20260506105058 | 68 | 197 | 1.7 | 2.6 | 0.00 | 0.00 | 0.00 | ||
| 20260506102600 | 69 | 135 | 5.2 | 5.2 | 0.00 | 0.00 | 0.00 | ||
| 20260506102101 | 66 | 221 | 2.6 | 1.7 | 0.00 | 0.00 | 0.00 | ||
| 20260506101059 | 67 | 233 | 0.0 | 0.0 | 0.00 | 0.00 | 0.00 | ||
| 20260506095604 | 66 | 238 | 3.5 | 3.5 | 0.00 | 0.00 | 0.00 | ||
| 20260506094103 | 65 | 118 | 2.6 | 0.9 | 0.00 | 0.00 | 0.00 | ||
| 20260506093604 | 64 | 232 | 3.5 | 1.7 | 0.00 | 0.00 | 0.00 | ||
| 20260506093105 | 65 | 297 | 2.6 | 2.6 | 0.00 | 0.00 | 0.00 | ||
| 20260506091106 | 65 | 238 | 2.6 | 4.3 | 0.00 | 0.00 | 0.00 | ||
| 20260506085105 | 65 | 132 | 2.6 | 3.5 | 0.00 | 0.00 | 0.00 | ||
| 20260506084606 | 62 | 162 | 3.5 | 1.7 | 0.00 | 0.00 | 0.00 | ||
| 20260506083606 | 62 | 243 | 5.2 | 6.1 | 0.00 | 0.00 | 0.00 | ||
| 20260506082608 | 64 | 163 | 2.6 | 5.2 | 0.00 | 0.00 | 0.00 | ||
| 20260506082109 | 66 | 235 | 4.3 | 5.2 | 0.00 | 0.00 | 0.00 | ||
| 20260506081109 | 64 | 197 | 5.2 | 5.2 | 0.00 | 0.00 | 0.00 | ||
| 20260506080611 | 68 | 173 | 4.3 | 4.3 | 0.00 | 0.00 | 0.00 | ||
| 20260506080112 | 65 | 174 | 3.5 | 0.9 | 0.00 | 0.00 | 0.00 | ||
| 20260506072115 | 60 | 239 | 3.5 | 3.5 | 0.00 | 0.00 | 0.00 | ||
| 20260506071617 | 61 | 233 | 3.5 | 2.6 | 0.00 | 0.00 | 0.00 | ||
| 20260506071118 | 63 | 280 | 2.6 | 4.3 | 0.00 | 0.00 | 0.00 | ||
| 20260506070619 | 61 | 224 | 2.6 | 1.7 | 0.00 | 0.00 | 0.00 | ||
| 20260506062123 | 57 | 193 | 3.5 | 3.5 | 0.00 | 0.00 | 0.00 | ||
| 20260506061625 | 56 | 177 | 1.7 | 2.6 | 0.00 | 0.00 | 0.00 | ||
| 20260506060624 | 56 | 162 | 1.7 | 2.6 | 0.00 | 0.00 | 0.00 | ||
| 20260506060125 | 56 | 170 | 2.6 | 2.6 | 0.00 | 0.00 | 0.00 | ||
| 20260506050132 | 54 | 153 | 0.0 | 0.0 | 0.00 | 0.00 | 0.00 | ||
| 20260506045129 | 52 | 153 | 0.0 | 0.0 | 0.00 | 0.00 | 0.00 | ||
| 20260506044131 | 53 | 153 | 0.0 | 0.0 | 0.00 | 0.00 | 0.00 | ||
| 20260506043633 | 52 | 153 | 0.0 | 0.0 | 0.00 | 0.00 | 0.00 | ||
| 20260506043134 | 54 | 152 | 0.0 | 0.0 | 0.00 | 0.00 | 0.00 | ||
| 20260506042631 | 54 | 132 | 0.0 | 0.0 | 0.00 | 0.00 | 0.00 | ||
| 20260506042133 | 54 | 163 | 0.0 | 0.0 | 0.00 | 0.00 | 0.00 | ||
| 20260506040637 | 50 | 217 | 0.9 | 0.9 | 0.00 | 0.00 | 0.00 | ||
| 20260506035637 | 48 | 169 | 0.0 | 0.0 | 0.00 | 0.00 | 0.00 | ||
| 20260506035137 | 47 | 162 | 1.7 | 1.7 | 0.00 | 0.00 | 0.00 | ||
| 20260506034639 | 47 | 198 | 2.6 | 5.2 | 0.00 | 0.00 | 0.00 | ||
| 20260506034139 | 48 | 176 | 0.0 | 0.0 | 0.00 | 0.00 | 0.00 | ||
| 20260506033138 | 48 | 210 | 2.6 | 2.6 | 0.00 | 0.00 | 0.00 | ||
| 20260506032137 | 48 | 211 | 0.9 | 1.7 | 0.00 | 0.00 | 0.00 | ||
| 20260506030639 | 47 | 236 | 2.6 | 3.5 | 0.00 | 0.00 | 0.00 | ||
| 20260506030140 | 47 | 186 | 0.9 | 1.7 | 0.00 | 0.00 | 0.00 | ||
| 20260506025143 | 48 | 165 | 0.0 | 1.7 | 0.00 | 0.00 | 0.00 | ||
| 20260506024641 | 49 | 190 | 0.0 | 0.0 | 0.00 | 0.00 | 0.00 | ||
| 20260506023644 | 48 | 177 | 2.6 | 2.6 | 0.00 | 0.00 | 0.00 | ||
| 20260506022647 | 49 | 193 | 4.3 | 2.6 | 0.00 | 0.00 | 0.00 | ||
| 20260506022144 | 49 | 167 | 3.5 | 4.3 | 0.00 | 0.00 | 0.00 | ||
| 20260506021646 | 49 | 163 | 2.6 | 3.5 | 0.00 | 0.00 | 0.00 | ||
| 20260506020649 | 49 | 187 | 2.6 | 1.7 | 0.00 | 0.00 | 0.00 | ||
| 20260506020150 | 49 | 198 | 1.7 | 1.7 | 0.00 | 0.00 | 0.00 | ||
| 20260506015150 | 49 | 201 | 2.6 | 3.5 | 0.00 | 0.00 | 0.00 | ||
| 20260506014652 | 49 | 183 | 1.7 | 1.7 | 0.00 | 0.00 | 0.00 | ||
| 20260506014153 | 49 | 190 | 1.7 | 3.5 | 0.00 | 0.00 | 0.00 | ||
| 20260506013654 | 50 | 186 | 1.7 | 1.7 | 0.00 | 0.00 | 0.00 | ||
| 20260506013152 | 49 | 219 | 1.7 | 2.6 | 0.00 | 0.00 | 0.00 | ||
| 20260506012653 | 49 | 203 | 1.7 | 1.7 | 0.00 | 0.00 | 0.00 | ||
| 20260506012155 | 50 | 187 | 1.7 | 0.9 | 0.00 | 0.00 | 0.00 | ||
| 20260506011656 | 49 | 39 | 0.0 | 0.0 | 0.00 | 0.00 | 0.00 | ||
| 20260506010656 | 50 | 39 | 0.0 | 0.0 | 0.00 | 0.00 | 0.00 | ||
| 20260506010158 | 50 | 39 | 0.0 | 0.0 | 0.00 | 0.00 | 0.00 | ||
| 20260506005200 | 51 | 39 | 0.0 | 0.0 | 0.00 | 0.00 | 0.00 | ||
| 20260506004702 | 51 | 39 | 0.0 | 0.0 | 0.00 | 0.00 | 0.00 | ||
| 20260506003702 | 50 | 39 | 0.0 | 0.0 | 0.00 | 0.00 | 0.00 | ||
| 20260506002203 | 50 | 39 | 0.0 | 0.0 | 0.00 | 0.00 | 0.00 | ||
| 20260506001701 | 50 | 39 | 0.0 | 0.0 | 0.00 | 0.00 | 0.00 | ||
| 20260506001203 | 49 | 39 | 0.0 | 0.0 | 0.00 | 0.00 | 0.00 | ||
| 20260506000205 | 48 | 39 | 0.0 | 0.0 | 0.00 | 0.00 | 0.00 | ||
| 20260505235707 | 49 | 39 | 0.0 | 0.0 | 0.00 | 0.00 | 0.00 | ||
| 20260505235204 | 51 | 97 | 0.9 | 0.9 | 0.00 | 0.00 | 0.00 | ||
| 20260505234706 | 51 | 158 | 0.0 | 0.0 | 0.00 | 0.00 | 0.00 | ||
| 20260505234207 | 49 | 158 | 0.0 | 0.0 | 0.00 | 0.00 | 0.00 | ||
| 20260505233708 | 52 | 158 | 0.0 | 0.0 | 0.00 | 0.00 | 0.00 | ||
| 20260505233210 | 50 | 158 | 0.0 | 0.0 | 0.00 | 0.00 | 0.00 | ||
| 20260505232708 | 50 | 176 | 2.6 | 1.7 | 0.00 | 0.00 | 0.00 | ||
| 20260505232210 | 49 | 90 | 0.0 | 0.0 | 0.00 | 0.00 | 0.00 | ||
| 20260505230714 | 52 | 217 | 0.0 | 0.0 | 0.00 | 0.00 | 0.00 | ||
| 20260505225714 | 52 | 217 | 0.0 | 0.0 | 0.00 | 0.00 | 0.00 | ||
| 20260505224717 | 52 | 280 | 0.0 | 0.0 | 0.00 | 0.00 | 0.00 | ||
| 20260505224218 | 52 | 280 | 0.0 | 0.0 | 0.00 | 0.00 | 0.00 | ||
| 20260505223715 | 54 | 280 | 0.0 | 0.0 | 0.00 | 0.00 | 0.00 | ||
| 20260505223217 | 53 | 280 | 0.0 | 0.0 | 0.00 | 0.00 | 0.00 | ||
| 20260505222718 | 51 | 280 | 0.0 | 0.0 | 0.00 | 0.00 | 0.00 | ||
| 20260505221219 | 51 | 201 | 0.0 | 0.0 | 0.00 | 0.00 | 0.00 | ||
| 20260505215723 | 50 | 176 | 2.6 | 0.9 | 0.00 | 0.00 | 0.00 | ||
| 20260505214722 | 51 | 172 | 1.7 | 2.6 | 0.00 | 0.00 | 0.00 | ||
| 20260505214223 | 51 | 166 | 1.7 | 2.6 | 0.00 | 0.00 | 0.00 | ||
| 20260505213725 | 52 | 167 | 1.7 | 1.7 | 0.00 | 0.00 | 0.00 | ||
| 20260505213226 | 51 | 195 | 1.7 | 1.7 | 0.00 | 0.00 | 0.00 | ||
| 20260505211726 | 51 | 194 | 2.6 | 1.7 | 0.00 | 0.00 | 0.00 | ||
| 20260505211227 | 50 | 235 | 1.7 | 1.7 | 0.00 | 0.00 | 0.00 | ||
| 20260505210728 | 50 | 184 | 0.9 | 0.0 | 0.00 | 0.00 | 0.00 | ||
| 20260505210230 | 50 | 194 | 1.7 | 1.7 | 0.00 | 0.00 | 0.00 | ||
| 20260505205728 | 51 | 214 | 1.7 | 1.7 | 0.00 | 0.00 | 0.00 | ||
| 20260505204731 | 53 | 183 | 0.9 | 1.7 | 0.00 | 0.00 | 0.00 | ||
| 20260505204232 | 52 | 193 | 1.7 | 1.7 | 0.00 | 0.00 | 0.00 | ||
| 20260505203734 | 51 | 198 | 1.7 | 2.6 | 0.00 | 0.00 | 0.00 | ||
| 20260505202733 | 52 | 173 | 2.6 | 2.6 | 0.00 | 0.00 | 0.00 | ||
| 20260505201735 | 52 | 146 | 2.6 | 2.6 | 0.00 | 0.00 | 0.00 | ||
| 20260505201236 | 52 | 201 | 0.0 | 0.0 | 0.00 | 0.00 | 0.00 | ||
| 20260505200734 | 52 | 201 | 0.0 | 0.0 | 0.00 | 0.00 | 0.00 | ||
| 20260505200235 | 51 | 184 | 2.6 | 1.7 | 0.00 | 0.00 | 0.00 | ||
| 20260505195736 | 51 | 212 | 1.7 | 1.7 | 0.00 | 0.00 | 0.00 | ||
| 20260505194739 | 52 | 152 | 0.0 | 0.0 | 0.00 | 0.00 | 0.00 | ||
| 20260505194236 | 53 | 194 | 1.7 | 1.7 | 0.00 | 0.00 | 0.00 | ||
| 20260505192740 | 53 | 205 | 1.7 | 2.6 | 0.00 | 0.00 | 0.00 | ||
| 20260505192242 | 54 | 190 | 0.9 | 0.0 | 0.00 | 0.00 | 0.00 | ||
| 20260505191238 | 55 | 200 | 1.7 | 1.7 | 0.00 | 0.00 | 0.00 | ||
| 20260505190240 | 54 | 176 | 1.7 | 1.7 | 0.00 | 0.00 | 0.00 | ||
| 20260505185741 | 53 | 139 | 0.0 | 0.0 | 0.00 | 0.00 | 0.00 | ||
| 20260505185236 | 53 | 158 | 0.9 | 0.0 | 0.00 | 0.00 | 0.00 | ||
| 20260505184737 | 54 | 278 | 3.5 | 0.9 | 0.00 | 0.00 | 0.00 | ||
| 20260505183239 | 54 | 256 | 5.2 | 5.2 | 0.00 | 0.00 | 0.00 | ||
| 20260505182737 | 54 | 260 | 4.3 | 6.1 | 0.00 | 0.00 | 0.00 | ||
| 20260505182238 | 55 | 294 | 4.3 | 3.5 | 0.00 | 0.00 | 0.00 | ||
| 20260505181740 | 55 | 229 | 4.3 | 3.5 | 0.00 | 0.00 | 0.00 | ||
| 20260505180742 | 55 | 252 | 5.2 | 7.8 | 0.00 | 0.00 | 0.00 | ||
| 20260505180239 | 55 | 276 | 5.2 | 3.5 | 0.00 | 0.00 | 0.00 | ||
| 20260505175740 | 55 | 250 | 6.1 | 7.8 | 0.00 | 0.00 | 0.00 | ||
| 20260505175242 | 55 | 269 | 5.2 | 5.2 | 0.00 | 0.00 | 0.00 | ||
| 20260505174244 | 55 | 274 | 5.2 | 3.5 | 0.00 | 0.00 | 0.00 | ||
| 20260505172744 | 56 | 252 | 4.3 | 3.5 | 0.00 | 0.00 | 0.00 | ||
| 20260505172245 | 56 | 253 | 3.5 | 6.1 | 0.00 | 0.00 | 0.00 | ||
| 20260505171747 | 56 | 232 | 4.3 | 6.1 | 0.00 | 0.00 | 0.00 | ||
| 20260505170248 | 57 | 263 | 5.2 | 5.2 | 0.00 | 0.00 | 0.00 | ||
| 20260505165749 | 57 | 312 | 5.2 | 5.2 | 0.00 | 0.00 | 0.00 | ||
| 20260505164749 | 57 | 249 | 4.3 | 2.6 | 0.00 | 0.00 | 0.00 | ||
| 20260505164250 | 57 | 250 | 3.5 | 4.3 | 0.00 | 0.00 | 0.00 | ||
| 20260505163752 | 57 | 270 | 4.3 | 4.3 | 0.00 | 0.00 | 0.00 | ||
| 20260505163253 | 57 | 277 | 5.2 | 4.3 | 0.00 | 0.00 | 0.00 | ||
| 20260505162754 | 57 | 256 | 4.3 | 4.3 | 0.00 | 0.00 | 0.00 | ||
| 20260505160756 | 58 | 158 | 0.9 | 1.7 | 0.00 | 0.00 | 0.00 | ||
| 20260505160258 | 59 | 224 | 2.6 | 7.0 | 0.00 | 0.00 | 0.00 | ||
| 20260505153259 | 57 | 210 | 7.8 | 7.0 | 0.00 | 0.00 | 0.00 | ||
| 20260505152801 | 58 | 236 | 9.6 | 9.6 | 0.00 | 0.00 | 0.00 | ||
| 20260505152304 | 58 | 207 | 8.7 | 10.4 | 0.00 | 0.00 | 0.00 | ||
| 20260505150801 | 61 | 203 | 7.8 | 7.8 | 0.00 | 0.00 | 0.00 |